Montgomery, NY

1:32 AM EST on January 17, 2018 (GMT -0500)
Orange County

Weather History for KMGJ - May, 2013

Change the Weather History Date:

Friday, May 10, 2013

  Actual Average (KSWF) Record (KSWF)
Temperature  
Mean Temperature 60 °F -  
Max Temperature 77 °F 66 °F 93 °F (1979)
Min Temperature 46 °F 45 °F 31 °F (1986)
Degree Days  
Heating Degree Days 4    
Growing Degree Days 10 (Base 50)    
Moisture  
Dew Point 52 °F    
Average Humidity 81    
Maximum Humidity 100    
Minimum Humidity 50    
Precipitation  
Precipitation 0.00 in - - ()
Sea Level Pressure  
Sea Level Pressure 29.94 in    
Wind  
Wind Speed 3 mph (SSW)    
Max Wind Speed 7 mph    
Max Gust Speed -    
Visibility 6 miles    
Events Fog , Rain    
Averages and records for this station are not official NWS values.
T = Trace of Precipitation, MM = Missing Value Source: NWS Daily Summary

Daily Weather History Graph

Daily Weather History Graph

Search for Another Location

Airport or City:

Trip Planner

Search our weather history database for the weather conditions in past years. The results will help you decide how hot, cold, wet, or windy it might be!

Date:

Astronomy

May. 10, 2013 Rise Set
Actual Time 5:42 AM EDT 8:04 PM EDT
Civil Twilight 5:11 AM EDT 8:35 PM EDT
Nautical Twilight 4:33 AM EDT 9:14 PM EDT
Astronomical Twilight 3:50 AM EDT 9:57 PM EDT
Moon 6:05 AM EDT (5/10) 8:52 PM EDT (5/10)
Length of Visible Light 15h 24m
Length of Day
14h 21m
New Moon, 0% of the Moon is Illuminated
May 10
New Moon
May 18
First Quarter
May 25
Full
May 31
Last Quarter
Jun 8
New

Hourly Weather History & Observations

Time (EDT) Temp. Dew Point Humidity Pressure Visibility Wind Dir Wind Speed Gust Speed Precip Events Conditions
1:54 AM 48.9 °F 48.0 °F 97% 29.94 in 0.5 mi SW 3.5 mph - N/A Fog Fog
2:34 AM 50.0 °F 48.2 °F 94% 29.94 in 1.2 mi Calm Calm - N/A   Scattered Clouds
2:54 AM 50.0 °F 48.9 °F 96% 29.95 in 1.5 mi SSW 3.5 mph - N/A   Partly Cloudy
2:58 AM 50.0 °F 48.2 °F 94% 29.95 in 3.0 mi Calm Calm - N/A   Partly Cloudy
3:18 AM 50.0 °F 48.2 °F 94% 29.94 in 1.5 mi Calm Calm - 0.00 in Rain Light Rain
3:20 AM 48.2 °F 48.2 °F 100% 29.94 in 0.8 mi Calm Calm - 0.00 in Rain Light Rain
3:54 AM 46.9 °F 46.0 °F 97% 29.95 in 0.8 mi SSW 4.6 mph - 0.00 in   Mist
3:56 AM 48.2 °F 46.4 °F 93% 29.95 in 1.5 mi SSW 4.6 mph - N/A   Partly Cloudy
3:59 AM 48.2 °F 46.4 °F 93% 29.95 in 3.0 mi SW 4.6 mph - N/A   Partly Cloudy
4:10 AM 48.2 °F 46.4 °F 93% 29.95 in 1.8 mi Calm Calm - N/A   Partly Cloudy
4:14 AM 48.2 °F 46.4 °F 93% 29.94 in 0.8 mi Calm Calm - N/A   Mist
4:54 AM 48.9 °F 46.9 °F 93% 29.95 in 0.2 mi SSW 3.5 mph - N/A Fog Fog
5:25 AM 50.0 °F 48.2 °F 94% 29.96 in 1.2 mi SSW 5.8 mph - 0.00 in Rain Light Rain
5:28 AM 48.2 °F 46.4 °F 93% 29.96 in 3.0 mi SSW 5.8 mph - 0.00 in Rain Light Rain
5:54 AM 50.0 °F 48.9 °F 96% 29.97 in 5.0 mi South 4.6 mph - 0.00 in   Clear
6:54 AM 53.1 °F 52.0 °F 96% 29.98 in 5.0 mi SSW 3.5 mph - N/A   Clear
9:54 AM 66.9 °F 57.9 °F 73% 29.99 in 10.0 mi WSW 4.6 mph - N/A   Clear
10:54 AM 71.1 °F 55.9 °F 59% 29.98 in 10.0 mi Calm Calm - N/A   Clear
11:54 AM 73.9 °F 55.0 °F 52% 29.96 in 10.0 mi Calm Calm - N/A   Clear
1:54 PM 75.0 °F 55.0 °F 50% 29.94 in 10.0 mi South 6.9 mph - N/A   Clear
2:54 PM 75.9 °F 55.9 °F 50% 29.93 in 10.0 mi SSW 6.9 mph - N/A   Clear
3:54 PM 75.9 °F 55.9 °F 50% 29.91 in 10.0 mi South 6.9 mph - N/A   Scattered Clouds
4:54 PM 75.0 °F 55.9 °F 51% 29.90 in 10.0 mi SSW 4.6 mph - N/A   Overcast
5:54 PM 75.0 °F 57.0 °F 53% 29.90 in 10.0 mi South 3.5 mph - N/A   Mostly Cloudy
6:54 PM 71.1 °F 57.9 °F 63% 29.91 in 10.0 mi NNW 6.9 mph - 0.00 in   Mostly Cloudy
7:54 PM 66.9 °F 57.9 °F 73% 29.88 in 10.0 mi Calm Calm - 0.00 in   Partly Cloudy
8:54 PM 63.0 °F 57.0 °F 81% 29.88 in 10.0 mi Calm Calm - N/A   Clear
9:54 PM 63.0 °F 57.9 °F 84% 29.89 in 10.0 mi Calm Calm - N/A   Clear
10:54 PM 61.0 °F 57.0 °F 87% 29.88 in 10.0 mi Calm Calm - N/A   Clear
11:54 PM 62.1 °F 57.0 °F 84% 29.88 in 10.0 mi South 3.5 mph - N/A   Mostly Cloudy